Über BlackCAT
Group: 3 satellites
Beschreibung wird geladen...
Live-Position
3D-Globus wird geladen...
Nächste Überflüge
Höhenverlauf
Altitude vs Time
uPlot chart will show altitude changes over time
Zweizeiliger Elementsatz
1 67369U 26004G 26061.46694074 .00003970 00000-0 44514-3 0 9998
2 67369 97.7967 61.7418 0008436 128.6345 231.5628 14.87352940 7428
Epoch: 2. März 2026 •
Age: 29 hours
Aktueller Status
Höhe 614.7 km
Geschwindigkeit 7.56 km/s
Subsatellitenpunkt 81.67°N,
69.18°E
Startdatum 11. Jan. 2026
Alter 0.1 years
Typ other
Technische Details
Klassifizierung Payload
Masse 11.40 kg
Trockenmasse 11.40 kg
Gesamtmasse 11.40 kg
Länge 0.30 m
Durchmesser 0.10 m
Spannweite 1.50 m
Form Box+ 2 pan
Hersteller NANAVU
Bus-Typ Cubesat 6U
Phasenstatus In Orbit
Besitzer/Staat PSU/US
Große Konstellationen
Loading constellations...